PHASE 3B (AO-10)

Last updated on Mon Nov 03 2025 00:03:21 GMT+0000 (Coordinated Universal Time)

1 14129U 83058B 25306.08704998 .00000174 00000+0 00000+0 0 9992 2 14129 26.1667 258.1085 6067507 52.3146 348.6538 2.05869520290812
UTC large
Height (km)
Speed (km/s)
/
Latitude / Longitude
Inclination (degrees)
Orbital Period (minutes)
Azimuth
Elevation
Range (km)
Doppler Factor

Next 0 passes for location: London (51.5072 / 0.1276)

Sorry there are no passes over London.